Theta_e
297 292 290 290 292 293 294 294 294 291 291 290 290 289 288 288 289 291 291 290 291 290 291 293 293 293 294 296 298 300 300 300 299 300 301 301 302 302 302 302 303 303 304 308 308 306 306 306 305 304 303 301 300 301 302 303 304 305 305 305 305 307 308 307 307 307 307 306 306 307 307 307 308 308 309 308 309 310 310 312 311 312 311 313 312 312
295 291 291 295 292 292 291 293 291 291 290 290 289 289 289 289 287 291 290 290 292 289 292 291 291 293 295 297 299 301 300 299 300 300 301 301 301 301 302 302 303 304 305 306 305 305 305 304 305 303 302 301 299 300 301 302 303 304 305 305 306 307 307 307 307 307 307 308 308 307 307 308 308 307 307 307 308 309 311 311 311 312 311 313 312 311
291 288 292 289 289 290 290 289 291 291 290 290 289 290 288 289 291 292 288 289 291 290 291 292 290 293 296 298 300 300 300 300 301 301 301 300 301 301 302 303 303 303 304 306 306 305 304 304 305 303 302 301 301 302 301 302 304 304 305 305 306 307 307 307 307 308 307 308 310 309 309 309 309 310 309 310 309 309 309 310 311 311 311 312 311 312
288 292 293 287 289 292 290 290 290 289 290 290 289 287 287 290 286 287 290 289 291 290 291 291 290 293 296 299 299 300 300 299 300 298 298 300 300 301 302 302 301 302 305 306 306 305 304 304 303 303 302 301 301 301 302 302 303 304 304 305 306 307 307 307 307 308 309 309 310 311 311 310 310 308 309 310 309 309 309 308 310 310 311 311 311 312
291 292 288 288 289 291 291 290 290 289 289 291 290 289 288 288 289 288 289 289 291 289 289 290 291 294 298 296 297 300 297 298 300 299 299 300 301 301 302 300 301 301 303 305 306 306 305 304 304 304 302 301 300 301 302 302 302 303 304 305 306 307 307 307 307 308 309 309 308 308 309 309 307 307 306 306 305 307 307 308 308 308 310 311 311 311
291 289 288 290 291 291 292 289 290 289 288 290 292 291 291 289 289 289 289 289 291 290 289 290 287 290 296 296 296 300 300 299 299 298 300 301 301 301 299 302 305 304 303 302 303 304 303 303 304 304 301 300 301 300 302 304 304 304 304 305 306 307 307 307 307 308 308 307 306 305 304 303 304 304 304 304 304 305 305 306 308 308 308 309 310 310
291 286 288 291 291 291 291 291 292 291 288 287 288 289 291 289 288 287 290 291 287 286 289 290 285 284 294 294 297 298 296 297 301 300 300 300 300 299 301 304 304 304 304 305 303 303 303 304 304 305 303 302 302 302 304 304 304 304 305 305 306 306 306 307 307 308 307 307 307 306 306 306 305 305 306 308 308 307 307 308 308 308 308 309 309 310
289 289 288 289 291 291 291 289 291 292 289 288 288 289 288 289 289 290 290 288 289 290 287 286 290 286 286 293 298 295 295 297 299 300 301 301 298 299 300 302 304 305 303 303 303 303 303 303 303 303 303 301 301 303 302 303 304 303 304 305 305 306 306 307 307 307 307 306 307 307 308 308 307 308 308 308 308 309 308 307 308 308 308 308 309 309
291 289 289 289 289 288 289 291 288 292 291 289 288 289 290 290 291 290 290 290 288 285 286 286 287 284 286 293 296 296 294 297 298 299 300 301 303 304 306 304 303 303 302 301 301 302 302 303 304 303 303 303 300 300 301 303 304 304 304 304 305 305 306 306 306 306 306 307 307 308 308 308 309 310 310 308 308 308 308 307 308 307 307 307 307 308
289 291 292 293 291 290 291 287 287 288 290 288 289 289 289 290 289 290 290 290 288 285 284 285 286 283 286 293 295 295 293 295 297 298 300 301 301 302 303 303 303 302 302 303 300 300 301 302 302 303 301 301 302 301 302 303 304 304 304 304 304 304 305 306 306 306 306 307 307 307 308 308 308 308 308 308 306 306 307 306 307 307 307 307 306 307
290 290 290 291 291 291 288 287 286 289 288 289 290 291 291 290 288 288 288 288 287 282 286 284 284 284 283 293 294 294 295 298 297 299 300 303 304 304 303 303 302 300 300 300 300 300 301 301 300 300 301 302 301 301 301 302 303 304 304 304 303 304 305 306 305 305 306 306 307 307 308 309 309 308 308 305 305 305 305 305 306 306 306 306 306 306
290 290 291 291 289 289 291 289 286 286 289 290 290 289 290 288 287 287 286 286 283 282 285 284 284 284 282 290 296 297 296 294 296 297 298 300 301 301 302 302 301 300 299 299 299 300 302 302 303 301 302 302 302 300 300 302 303 303 304 304 303 304 305 305 305 305 306 306 306 307 308 308 309 308 307 305 305 305 305 305 305 306 306 306 306 306
289 291 291 290 290 290 291 291 290 291 291 291 290 289 284 283 284 281 284 280 282 283 284 284 284 283 283 289 295 296 297 296 296 297 299 299 299 301 302 303 301 301 299 299 299 300 302 303 304 304 304 303 301 301 301 302 303 303 304 304 303 304 305 305 305 305 305 306 306 306 307 308 308 308 307 306 306 307 305 305 306 305 304 305 304 305
289 287 290 290 290 291 291 289 288 287 290 289 288 287 283 280 279 276 280 279 280 284 283 285 286 282 290 293 297 296 299 299 299 299 300 299 299 299 300 300 298 300 300 299 299 300 302 303 303 303 302 302 303 302 302 302 302 303 303 303 303 304 305 305 305 305 305 305 306 306 306 307 307 307 307 307 306 307 306 307 306 306 305 305 305 305
284 286 288 290 289 288 290 290 290 290 289 290 291 287 286 284 281 277 281 280 281 283 283 284 282 285 285 291 292 295 297 298 297 297 299 298 298 298 297 297 297 299 300 300 300 301 301 302 301 302 302 302 302 302 302 301 302 303 303 303 303 304 304 304 304 305 305 305 306 306 306 307 307 307 307 307 307 307 306 307 307 307 307 306 306 306
286 287 287 288 288 287 289 290 289 291 290 290 290 290 286 285 287 283 282 282 281 283 283 281 284 290 291 295 296 298 298 297 297 297 295 296 296 296 297 300 300 300 300 301 301 303 303 302 300 301 301 301 301 301 302 301 302 303 303 303 303 304 305 304 304 304 305 305 306 306 306 306 306 306 307 306 306 307 308 307 306 306 307 307 307 307
283 285 286 288 287 288 289 288 289 289 285 288 288 286 287 287 287 280 276 276 276 280 281 286 285 289 293 294 296 296 294 295 293 292 293 296 297 296 298 301 300 300 301 302 303 302 302 303 302 302 301 301 301 301 301 302 302 303 303 303 303 303 304 304 304 304 305 305 305 305 306 306 306 305 305 305 306 306 307 307 306 306 307 307 307 307
286 287 286 288 287 287 287 287 287 289 289 288 285 288 288 290 289 285 282 281 281 279 282 281 282 285 285 285 298 296 296 296 296 295 295 296 297 296 301 303 302 302 300 299 300 300 301 300 301 301 301 301 301 301 302 301 302 302 303 303 303 303 303 304 304 304 304 304 304 305 305 305 306 305 305 306 306 306 306 306 306 306 306 306 306 306
290 285 286 285 285 288 286 288 289 289 288 289 287 288 286 284 283 285 283 277 277 277 280 283 282 281 284 287 293 294 295 296 297 298 296 297 298 299 301 303 304 303 302 302 301 302 302 302 303 302 302 301 301 301 302 302 302 301 301 302 302 303 303 304 304 304 304 305 305 305 305 305 305 305 305 306 306 306 305 305 305 305 305 306 306 305
290 285 285 285 286 287 288 288 286 287 289 287 289 288 284 285 286 284 284 283 283 279 277 281 280 282 289 290 293 294 296 297 296 296 296 297 298 299 300 301 301 302 301 300 300 301 301 302 302 301 300 301 303 303 303 302 302 301 301 301 301 302 303 303 303 303 303 304 304 305 305 305 305 305 305 305 305 304 304 304 304 304 304 305 305 304
288 287 284 285 286 286 285 287 287 289 286 285 287 286 286 285 286 286 284 284 283 280 280 278 278 285 292 294 294 295 296 297 297 297 299 299 300 301 300 300 301 300 300 301 302 301 302 303 302 301 300 300 300 300 300 301 301 302 302 301 301 301 301 301 302 303 303 303 304 304 304 304 304 304 305 304 304 304 304 304 304 304 305 305 304 304
287 286 285 285 284 284 288 286 286 288 291 290 288 287 289 284 283 281 281 280 279 282 279 278 279 286 293 294 295 296 297 297 298 298 298 299 299 300 301 301 299 300 301 301 302 302 304 303 303 302 301 301 299 300 300 301 300 300 301 302 302 302 302 302 302 302 303 303 303 303 303 304 304 304 304 304 304 303 303 303 303 304 304 304 304 304
291 288 286 283 286 288 285 284 283 283 283 284 288 289 291 289 289 285 280 281 278 280 278 281 279 284 295 294 295 295 296 296 296 296 296 298 298 297 297 299 300 300 299 300 301 302 302 302 302 301 299 299 299 300 300 301 301 301 301 301 302 302 302 303 303 303 303 303 302 302 303 303 303 304 303 303 303 303 303 303 303 304 303 303 303 303
289 288 284 285 287 283 283 284 284 282 284 286 286 285 287 287 288 288 287 285 284 280 280 281 279 285 294 292 295 293 293 292 292 292 295 296 296 297 297 297 298 300 301 302 302 301 301 301 301 300 300 302 303 302 301 301 301 301 301 301 301 301 301 302 302 302 302 302 302 302 302 302 303 303 303 302 303 303 303 303 303 304 303 303 303 302
287 287 287 284 283 285 283 284 284 282 284 286 287 287 288 287 285 284 283 283 283 282 283 281 278 285 294 292 294 292 292 293 295 295 294 295 297 299 298 297 297 298 299 299 299 300 300 300 299 300 301 301 300 300 300 299 299 299 300 301 300 301 301 302 302 302 302 301 301 301 301 302 302 302 302 302 303 303 303 303 303 303 302 303 302 302
289 288 286 282 279 276 276 277 282 283 283 285 284 284 286 287 285 285 283 283 280 283 284 282 283 289 294 296 296 297 296 296 297 298 297 297 297 297 298 298 297 297 297 298 299 299 299 300 300 300 299 299 299 299 299 299 299 298 298 299 299 300 300 301 301 301 301 301 300 301 301 301 302 301 302 302 302 303 303 303 303 303 303 302 302 302
288 286 287 288 286 284 287 287 284 286 285 284 284 284 285 287 288 289 287 284 282 283 282 285 287 289 291 293 294 295 296 295 296 297 297 297 296 297 297 297 297 297 297 297 297 299 298 297 297 299 299 299 298 298 298 297 297 297 298 298 299 299 299 300 300 300 300 300 300 300 301 301 301 302 302 302 302 303 303 303 303 302 302 302 302 301
284 285 287 286 288 290 292 287 285 287 286 286 284 283 285 285 286 286 284 283 288 283 279 286 289 287 288 291 293 294 295 296 296 296 296 297 297 298 298 297 295 296 297 297 297 296 296 297 298 298 299 299 299 298 297 297 297 296 297 297 299 299 299 299 299 299 299 300 300 300 300 301 301 301 302 302 302 302 302 302 302 302 302 301 300 300
287 285 287 286 286 289 289 287 285 284 285 285 286 286 283 285 284 283 285 289 287 284 283 289 289 286 289 291 293 294 295 295 296 296 296 296 296 297 297 297 297 297 298 298 298 298 298 298 299 299 299 299 298 297 297 296 296 296 296 297 297 298 298 299 299 299 299 299 299 300 301 301 301 301 301 301 301 301 301 301 301 301 301 300 300 300
286 286 282 281 284 286 287 286 285 284 285 284 285 286 287 285 285 286 287 289 287 287 290 290 290 290 291 292 294 295 296 296 296 297 297 296 296 297 296 296 296 296 297 297 298 298 298 298 298 298 298 298 297 297 296 296 296 295 295 296 297 297 298 298 298 298 298 299 299 300 300 301 301 300 300 300 300 300 300 300 300 300 300 300 300 299
285 285 281 278 279 284 286 283 284 284 284 283 285 285 286 286 285 286 287 288 289 288 289 289 289 288 293 295 295 296 297 297 296 295 295 296 296 296 295 295 295 296 296 297 297 297 298 297 297 297 296 296 297 296 296 296 295 295 294 295 296 297 298 297 297 297 298 298 299 299 300 300 299 299 299 299 299 299 299 299 299 299 298 298 298 298
284 284 279 280 280 281 280 280 279 280 280 280 281 283 284 283 282 284 283 287 287 285 287 286 284 285 291 295 295 296 295 295 294 294 295 295 295 294 293 294 294 295 295 296 296 296 296 296 296 296 296 296 296 296 295 295 295 295 295 296 296 296 296 296 296 297 297 298 298 298 298 298 298 297 297 298 298 298 298 298 298 297 297 297 297 297
284 284 281 280 279 279 281 277 279 278 275 276 276 280 284 285 286 287 287 287 288 289 286 284 285 291 293 295 294 294 295 294 294 293 294 294 295 294 293 293 294 295 295 295 295 295 296 296 296 296 296 296 295 296 296 296 295 295 296 295 296 295 294 295 295 296 297 297 296 296 297 297 296 296 296 297 297 297 297 296 296 296 296 296 297 296
282 283 283 282 279 278 275 274 275 277 274 276 288 289 287 285 285 284 284 286 288 289 288 290 291 294 295 294 293 293 293 294 294 295 295 294 293 294 294 294 295 295 295 295 296 295 296 296 296 296 296 296 296 295 295 294 293 294 294 294 293 294 295 295 296 295 295 295 295 296 296 295 295 295 296 296 296 295 295 295 295 296 296 296 296 295
282 281 283 278 277 278 276 274 278 274 276 283 283 287 290 289 289 287 288 289 289 290 290 290 291 292 293 294 295 295 295 295 292 292 293 294 294 294 293 294 294 295 295 296 296 296 296 297 297 296 295 294 293 293 293 293 293 293 292 293 293 294 294 294 295 294 295 294 294 294 294 294 294 294 294 295 294 294 294 294 294 294 295 295 294 294
282 283 279 276 278 277 275 276 268 275 279 282 283 282 283 284 285 284 284 287 289 289 290 288 290 291 293 293 294 295 294 292 293 294 294 295 296 295 294 295 296 296 296 297 297 298 298 297 296 295 295 293 292 292 292 292 292 291 292 292 292 293 293 293 293 293 293 293 293 293 293 293 293 293 294 294 294 293 293 293 293 293 293 293 293 293
285 283 282 281 278 277 278 278 278 284 282 285 284 283 283 284 283 283 281 286 288 289 289 289 290 291 292 293 293 294 292 291 290 292 295 296 296 297 296 296 297 298 298 298 297 296 295 294 293 293 291 291 291 290 291 291 290 291 292 292 293 292 292 292 292 292 292 292 293 293 293 293 293 293 293 293 293 293 293 293 292 293 293 292 293 293
285 283 282 281 278 281 276 275 276 275 273 280 287 291 289 291 290 289 286 285 290 291 291 289 289 290 290 291 292 291 291 288 287 291 296 297 296 298 296 296 297 296 296 296 294 292 292 291 290 290 290 289 290 289 289 289 290 291 292 292 292 292 292 291 291 291 291 292 292 293 293 293 293 292 292 292 292 292 292 292 292 292 292 292 292 291
278 280 282 282 279 276 274 273 275 273 278 285 287 290 290 289 289 288 285 282 289 291 292 291 289 290 291 291 291 290 287 285 288 293 297 298 295 294 295 295 295 294 294 293 292 292 291 290 289 288 289 289 289 288 288 288 289 291 291 291 291 291 290 289 289 289 290 291 292 292 292 292 292 292 291 291 291 291 291 291 291 291 291 290 290 290
277 279 280 277 277 276 277 273 274 278 279 284 287 283 284 287 290 287 277 280 289 290 291 291 291 291 291 291 291 289 288 286 290 295 298 298 296 295 294 295 294 292 291 290 288 288 288 287 289 289 288 287 286 286 287 288 290 290 290 289 289 287 286 285 286 287 289 290 290 290 290 290 290 290 290 290 290 290 290 291 290 290 289 289 290 289
277 277 278 277 279 278 277 277 279 280 286 288 285 284 284 289 288 280 276 286 292 291 292 292 291 291 292 289 288 287 289 293 295 296 293 291 290 290 288 288 290 289 290 288 288 287 289 288 288 287 284 283 282 283 285 288 290 288 286 285 284 282 282 282 284 285 288 288 288 288 288 289 289 288 289 289 288 289 289 289 289 289 288 288 288 288
275 275 274 274 275 277 278 276 277 281 287 289 286 287 287 287 278 279 289 295 292 291 292 292 293 292 292 291 290 291 293 293 294 292 289 290 291 289 287 288 288 287 286 287 286 287 288 286 285 283 281 279 279 280 282 287 287 285 283 282 279 278 279 280 282 284 285 285 285 284 285 285 285 286 286 287 287 287 288 288 288 288 288 288 287 286
278 275 276 275 276 275 274 275 275 272 284 292 287 285 286 284 287 292 292 289 294 294 293 290 292 293 292 291 292 292 294 293 291 291 291 290 289 290 290 288 288 288 288 287 286 285 286 286 282 279 278 277 277 277 279 283 283 281 280 278 276 277 278 279 281 282 282 282 282 282 282 282 282 282 283 284 285 285 286 286 286 286 286 286 285 285
284 279 277 277 280 277 276 273 275 283 287 292 288 285 286 290 296 295 294 293 292 292 294 295 292 292 293 293 293 292 292 292 291 290 289 288 289 289 288 286 286 286 285 284 284 284 285 283 280 278 276 275 275 275 275 277 278 278 277 275 275 276 277 278 279 280 280 279 279 279 280 280 280 281 281 282 283 284 284 283 283 284 284 284 284 284
285 283 284 281 282 280 281 283 288 285 290 292 292 294 292 292 294 293 294 295 295 293 292 292 295 294 291 291 291 291 290 290 290 290 289 289 289 288 288 287 287 286 285 284 282 282 282 281 278 276 274 273 273 273 272 273 274 274 273 273 273 274 275 276 277 277 277 277 276 276 277 278 278 278 279 280 281 281 282 282 282 282 282 282 282 282
287 289 288 286 285 287 289 290 290 286 287 291 292 294 294 293 294 294 292 292 293 293 292 292 292 290 289 288 289 290 289 290 289 289 288 287 286 286 286 285 283 282 281 281 281 280 278 278 276 275 273 272 271 271 271 271 271 270 271 272 272 273 274 274 275 274 274 274 274 274 275 277 277 277 277 277 278 278 279 279 280 280 280 280 279 279
284 286 285 283 286 285 280 289 287 288 288 289 291 293 293 290 291 292 293 292 292 291 290 289 288 289 289 288 289 289 290 289 288 289 288 287 287 286 286 284 280 278 278 277 277 278 278 277 276 274 272 271 271 270 270 269 269 269 270 270 271 271 273 273 273 273 273 273 273 274 274 274 274 275 276 276 276 277 276 277 277 277 276 277 277 277
281 286 284 284 285 284 284 289 289 290 291 291 290 290 290 292 292 292 291 290 290 289 288 289 288 288 288 287 288 288 288 289 287 288 288 287 286 285 283 280 278 276 275 274 274 275 275 275 274 272 271 269 269 269 268 268 268 268 268 269 270 270 272 272 271 271 271 271 272 272 272 272 271 273 274 274 274 275 275 275 275 275 275 274 275 275
285 284 280 283 283 285 288 289 288 287 288 290 287 288 291 289 288 289 290 289 287 286 285 284 285 285 286 285 284 285 286 287 285 285 285 284 282 280 278 276 275 274 273 272 271 271 272 271 270 269 268 268 267 267 267 266 267 267 267 268 269 269 271 271 270 270 270 271 271 271 271 271 271 271 272 272 273 274 274 274 274 274 274 275 276 276
284 282 284 282 281 281 282 285 288 283 283 288 290 284 281 279 281 284 285 284 280 280 280 281 283 282 280 279 279 282 283 283 282 282 281 279 278 277 276 275 274 272 271 270 269 269 268 267 267 266 266 266 266 265 265 265 265 265 266 266 267 268 269 270 270 269 269 269 270 270 270 270 270 270 271 271 272 273 273 274 274 274 274 273 276 276
284 286 286 282 282 281 287 288 290 289 289 287 280 277 278 277 280 279 277 277 276 276 276 278 280 281 279 276 276 277 277 278 278 279 277 276 275 275 274 274 273 272 271 270 269 267 266 266 265 265 264 265 264 263 263 263 263 263 264 265 266 266 267 268 269 269 268 268 268 268 269 269 269 269 270 270 270 270 271 272 272 273 273 273 273 273
Wind_Speed
3 6 6 7 8 8 4 8 4 3 1 3 1 2 6 6 9 8 6 1 0 4 10 10 12 17 21 21 16 13 13 15 17 17 14 11 10 9 11 12 11 11 12 7 7 9 8 7 6 5 5 5 5 7 8 9 10 11 11 11 12 11 11 10 10 10 10 10 8 7 9 9 8 8 7 6 7 7 7 7 7 7 8 7 8 7
2 6 10 3 2 0 2 1 3 2 0 4 6 5 7 4 8 3 2 2 2 2 2 2 10 19 21 21 19 11 10 15 14 14 14 10 8 9 9 10 10 10 8 9 8 5 4 3 3 3 3 5 7 7 8 10 11 11 12 12 11 10 11 11 11 10 10 10 10 10 9 8 8 8 8 8 7 7 5 7 7 7 8 8 8 8
5 9 2 3 3 4 3 2 3 6 4 2 5 4 4 6 5 4 2 1 3 2 7 3 10 17 22 22 20 12 12 11 9 9 11 10 9 8 7 7 8 7 9 6 6 2 2 2 2 2 3 4 6 6 8 9 10 11 11 11 11 10 11 11 11 10 10 9 8 8 7 9 7 5 6 6 6 6 7 7 7 7 7 8 8 8
5 6 3 1 2 4 3 2 4 1 2 4 4 4 7 2 3 4 3 2 4 2 7 7 11 15 20 17 16 11 6 6 3 5 9 8 10 8 8 5 6 9 7 8 6 4 2 2 2 2 2 3 4 4 6 7 10 8 9 9 10 9 10 10 11 10 9 8 8 5 6 7 6 7 5 3 4 6 6 7 7 7 7 8 8 8
3 3 1 3 2 1 4 3 5 4 5 5 7 6 6 3 3 5 2 4 4 2 2 10 11 10 9 9 13 4 8 4 4 5 9 9 9 7 6 8 7 9 7 7 8 5 4 4 4 3 2 1 4 6 6 7 8 6 10 9 10 8 10 9 10 11 9 8 7 5 6 5 5 5 5 5 6 7 8 7 8 8 8 8 8 8
5 3 0 4 2 2 4 3 5 3 6 3 7 11 6 2 4 3 4 5 4 3 2 5 8 3 7 14 15 11 7 6 3 8 10 8 7 4 6 7 3 5 6 7 8 7 7 6 5 3 2 3 4 6 6 6 7 7 8 9 9 8 8 9 10 12 10 10 10 10 9 9 9 8 9 11 12 10 10 10 7 7 8 9 8 8
2 1 2 3 3 3 3 4 2 5 3 2 1 2 1 2 1 3 4 4 4 3 2 3 4 6 8 15 15 7 6 11 9 4 8 7 4 4 5 3 3 2 3 5 7 6 5 5 4 4 2 3 4 5 4 5 6 7 7 8 9 8 8 8 10 12 10 10 10 13 12 11 12 11 9 7 7 8 7 7 9 8 8 8 9 8
4 3 3 1 3 3 3 5 5 8 2 5 3 2 4 5 5 3 3 2 5 2 1 1 2 5 6 14 3 1 8 10 6 5 5 3 3 3 3 4 3 4 5 6 7 7 5 5 4 5 3 3 3 2 3 4 5 7 8 8 9 7 8 8 9 12 12 11 11 12 11 10 10 11 10 10 8 7 7 8 9 8 8 8 8 9
1 4 5 5 2 2 3 1 2 6 5 2 2 0 2 1 1 3 3 3 1 3 3 3 1 2 5 11 2 4 8 3 2 4 6 6 4 1 2 3 4 5 6 7 7 8 8 7 5 4 4 3 3 3 4 5 5 6 7 8 9 9 9 9 12 11 13 11 11 12 10 10 9 8 5 6 6 7 7 8 7 8 8 8 8 8
2 1 3 3 5 4 3 2 1 1 6 2 4 3 3 3 3 2 2 2 1 1 6 3 1 3 7 10 9 2 2 4 1 1 1 3 4 5 5 6 6 5 5 5 6 7 8 7 5 4 4 5 3 3 4 4 5 6 6 8 10 10 9 9 12 12 13 12 10 11 11 12 10 8 5 6 7 7 7 9 9 8 7 8 8 8
1 1 2 2 3 2 4 3 1 3 3 4 4 3 2 1 1 1 1 1 1 3 4 4 1 2 4 6 5 5 4 2 1 2 2 3 3 2 3 5 6 6 6 6 7 8 7 6 6 4 4 3 1 1 3 4 5 6 7 9 10 10 8 9 12 13 14 13 11 11 11 12 11 10 8 8 8 7 8 9 9 9 8 8 8 8
3 2 2 0 2 3 2 5 2 0 2 2 2 3 3 4 2 2 1 1 2 3 4 1 1 2 3 5 4 4 1 4 4 5 8 7 7 8 9 7 6 6 7 8 7 7 6 5 2 1 3 2 2 2 4 4 4 5 7 8 10 10 10 10 11 12 13 12 12 11 12 13 11 11 9 11 11 11 11 11 10 9 7 8 7 8
5 6 2 3 2 2 4 4 3 3 2 2 2 2 2 2 2 2 2 2 3 2 2 2 2 2 12 16 9 10 8 5 6 6 9 10 10 11 10 8 7 6 7 6 6 5 5 4 4 3 2 2 3 3 5 5 5 5 6 8 10 10 10 10 11 12 13 12 12 12 12 12 10 11 11 11 11 10 10 10 10 10 9 8 8 9
1 3 2 4 3 2 3 7 4 3 5 4 4 2 1 3 1 3 1 2 3 0 1 2 2 6 9 10 13 17 14 7 7 7 7 5 8 10 10 9 8 7 6 5 5 5 4 4 4 4 3 2 2 2 3 4 5 5 6 8 10 9 10 9 10 12 12 13 13 12 12 12 10 11 11 11 11 10 10 9 11 10 10 10 11 11
2 2 5 7 4 2 3 3 3 3 6 5 3 1 2 1 1 2 1 4 2 1 2 2 1 4 2 3 2 4 6 6 5 4 2 4 6 8 7 7 8 7 5 3 4 4 4 5 4 4 4 3 3 2 2 3 5 5 6 8 10 10 10 11 11 10 12 12 12 12 11 11 10 10 10 11 10 10 10 9 10 9 8 9 9 10
4 4 3 4 2 1 4 1 1 2 3 2 1 2 1 2 0 4 2 2 2 2 3 4 5 2 6 7 13 10 8 10 8 7 3 7 2 2 5 4 5 4 4 3 4 4 3 3 3 3 3 3 3 3 3 5 5 6 6 7 8 9 9 10 11 10 11 11 9 11 12 13 11 9 9 9 8 8 9 8 9 9 9 9 8 8
2 4 4 1 1 1 2 0 1 2 2 4 4 4 0 3 1 4 2 2 1 1 6 1 7 7 6 9 10 4 3 1 2 1 1 2 3 3 4 4 4 4 4 4 4 4 5 3 1 1 3 3 2 2 3 4 4 5 5 6 8 8 8 9 10 10 10 10 10 11 12 11 11 12 12 11 11 10 8 9 9 9 9 8 7 6
2 2 2 1 4 3 2 1 2 1 3 3 3 2 3 1 3 1 2 1 1 3 3 2 5 8 4 5 2 4 6 4 4 1 3 4 3 4 4 3 3 4 4 5 5 5 6 5 4 3 2 3 3 3 4 5 5 5 6 7 8 8 10 9 9 10 10 11 11 11 12 12 12 11 11 11 10 9 8 8 8 8 7 9 8 6
0 4 3 2 2 2 2 3 2 2 2 2 3 1 3 2 3 1 1 3 2 3 4 4 5 9 8 10 2 9 5 5 4 3 5 5 3 5 5 5 3 2 2 2 3 3 4 5 4 3 3 3 4 4 4 4 4 5 7 7 8 10 9 10 9 10 9 11 9 9 11 12 12 11 10 10 10 8 9 9 9 9 9 7 7 7
1 2 2 1 1 2 1 2 5 5 1 1 1 1 1 2 2 3 1 1 0 3 1 4 3 11 5 8 5 8 7 5 5 4 6 6 5 4 4 3 5 6 5 6 6 5 5 5 5 4 3 4 5 4 4 4 4 7 7 8 9 8 8 9 10 10 11 11 10 9 9 10 10 11 11 11 10 10 10 10 10 10 9 10 8 8
3 2 3 3 3 1 4 8 7 10 9 4 4 2 2 0 1 2 0 2 1 2 1 3 6 8 4 8 8 13 12 8 6 7 5 6 6 3 2 2 4 5 6 6 6 7 7 7 5 3 4 5 5 5 5 5 6 6 6 8 9 10 11 11 12 11 12 10 11 12 13 12 11 12 11 11 11 11 10 10 10 10 10 8 9 8
2 2 4 4 3 6 2 4 5 3 1 6 9 8 10 9 4 3 4 2 1 2 3 2 9 9 10 7 10 14 11 7 5 6 7 7 6 4 3 3 2 5 6 6 7 7 8 9 8 5 4 4 4 5 6 5 5 7 8 8 8 9 10 11 12 12 11 11 10 13 12 13 11 11 11 12 12 12 11 11 11 11 10 10 9 9
1 2 0 4 5 2 2 4 2 3 2 2 4 3 5 5 2 3 4 3 0 2 3 1 3 14 2 6 4 6 5 4 5 5 7 6 5 3 4 5 6 6 8 7 7 8 8 8 8 7 7 6 7 7 6 5 5 6 7 7 7 8 10 10 9 8 9 9 10 12 11 11 11 11 12 13 12 13 13 12 12 10 11 10 9 9
3 2 2 4 1 2 2 1 1 2 2 3 5 2 3 9 8 6 2 2 4 4 3 1 4 12 5 3 4 1 1 1 2 4 6 7 7 5 6 6 8 9 9 8 7 8 7 8 7 7 7 6 5 4 5 5 6 6 6 6 6 8 9 8 7 6 7 8 9 10 11 12 11 12 13 14 13 14 14 13 12 11 12 12 10 10
4 3 3 1 2 1 2 3 1 1 1 5 4 6 8 1 4 3 4 0 2 8 6 8 9 11 1 1 1 2 2 4 7 8 7 10 11 5 5 7 7 9 9 9 10 10 9 8 9 8 7 8 8 8 7 7 6 6 6 5 7 7 7 7 6 7 7 8 10 10 11 12 12 12 13 14 11 14 14 14 13 11 13 12 12 12
3 3 6 4 5 5 3 3 3 5 9 5 3 5 10 12 10 5 5 4 6 2 13 7 11 19 6 4 11 11 9 14 15 13 7 8 10 10 5 7 8 7 9 10 10 10 11 10 8 8 9 8 8 8 8 7 7 6 6 7 6 6 6 6 6 6 7 7 9 10 11 11 11 12 13 12 11 12 11 10 10 10 9 11 12 12
2 0 5 8 8 11 9 0 2 5 7 6 7 11 12 12 11 9 2 3 12 5 10 15 16 15 19 18 15 18 12 15 19 17 10 6 7 7 7 6 6 7 9 11 11 10 9 10 12 10 9 8 8 7 7 7 7 7 7 7 6 6 6 6 6 6 7 8 9 9 10 10 10 9 10 10 9 7 7 8 8 8 8 6 9 8
1 3 11 9 12 13 5 1 5 5 5 5 8 9 10 14 15 13 10 10 8 6 12 12 17 12 20 23 22 20 18 17 16 14 15 13 6 5 6 8 10 10 11 9 9 10 11 12 12 10 9 7 7 6 6 6 6 7 7 7 5 4 5 5 6 7 8 9 9 10 10 10 10 10 10 8 8 9 9 9 9 9 8 7 8 9
2 4 3 7 16 13 9 2 5 2 4 3 7 8 13 15 13 17 18 7 12 10 15 15 12 16 21 23 25 21 21 21 18 16 14 11 12 11 8 11 13 14 14 12 11 9 10 11 10 10 9 8 6 7 6 6 6 5 5 6 5 4 5 5 5 6 7 8 9 10 9 9 8 8 9 9 9 10 11 10 10 10 10 10 10 8
1 7 1 2 8 10 8 4 6 10 6 3 8 9 10 16 20 19 17 16 17 18 16 14 13 17 18 21 21 22 21 15 13 12 12 14 15 10 11 14 15 16 13 12 11 10 9 10 10 10 9 8 7 6 5 5 5 4 4 5 4 4 5 3 5 6 6 6 6 6 6 6 6 6 7 8 8 9 8 8 9 9 9 11 11 11
3 3 7 2 1 9 8 3 6 9 9 12 11 11 13 11 11 17 16 14 14 15 15 19 15 17 22 21 22 24 19 9 12 18 20 18 12 9 11 13 14 14 14 13 11 10 10 10 10 9 9 8 6 6 4 4 4 3 4 5 5 5 3 4 5 6 6 7 6 5 5 6 6 5 7 7 7 7 7 8 7 7 8 8 7 8
4 3 3 1 3 6 2 3 4 0 1 5 8 13 17 14 12 14 13 17 15 18 19 8 10 18 24 22 17 16 16 17 19 19 17 13 8 7 10 13 13 14 13 13 12 10 10 10 9 8 8 7 6 5 5 5 4 3 4 3 3 3 2 4 5 6 6 6 5 6 6 6 7 7 8 7 8 8 7 7 7 8 8 8 9 8
6 3 3 2 4 7 1 3 3 3 1 7 12 21 20 17 18 12 11 6 18 19 10 12 20 21 20 19 14 12 12 13 10 11 11 11 10 8 11 12 13 12 12 12 12 12 11 9 8 7 7 6 5 5 5 3 3 4 3 3 2 1 2 4 4 5 5 4 4 5 5 5 6 7 7 8 7 7 7 8 8 9 8 10 9 7
2 4 2 2 4 0 1 3 1 2 12 12 7 15 15 19 22 22 19 20 23 15 18 21 19 12 13 17 16 20 17 10 8 7 4 7 10 11 11 12 13 14 13 13 11 11 11 8 7 6 6 5 4 4 4 4 4 5 4 4 3 3 3 3 3 3 4 3 4 4 4 5 5 6 6 5 5 5 6 7 9 8 7 6 6 8
7 4 3 1 1 1 1 1 7 19 13 3 2 3 16 22 19 21 19 18 19 18 20 16 19 21 26 21 16 15 13 5 1 9 13 10 10 11 15 16 13 13 13 12 11 9 8 7 6 5 4 4 4 3 2 4 4 3 3 2 3 2 3 2 3 3 3 3 3 3 4 4 5 6 6 5 6 6 7 8 7 7 7 7 8 8
8 7 3 1 1 1 1 2 5 14 2 3 1 3 3 6 5 4 10 16 20 21 21 23 26 26 24 20 18 15 5 9 11 11 13 16 11 13 13 14 14 10 10 9 8 6 3 3 4 3 2 2 2 3 3 4 3 3 3 1 2 1 1 2 2 3 3 3 3 4 4 4 5 6 5 6 6 7 8 8 8 7 6 6 6 6
8 3 3 3 3 5 2 11 19 12 20 14 8 5 7 8 10 11 9 11 21 20 19 21 24 23 21 20 22 10 6 7 11 18 15 13 13 13 16 15 11 9 7 5 4 4 2 2 2 2 2 2 3 4 4 4 4 3 2 1 1 1 2 2 2 3 3 4 3 4 4 4 5 5 5 6 6 7 7 6 6 6 5 6 7 7
3 8 4 4 4 8 3 5 5 5 18 3 15 13 13 13 13 12 9 12 12 16 16 20 18 17 19 17 13 3 5 3 10 11 12 2 8 7 8 10 9 8 6 4 1 1 2 1 0 1 2 3 3 3 4 4 4 3 0 2 2 3 3 3 4 4 4 4 4 4 4 4 5 5 5 5 6 6 5 4 4 4 4 5 6 6
3 3 1 11 2 3 2 5 10 11 11 9 12 12 17 13 8 6 1 12 7 17 19 10 14 17 15 15 5 10 6 3 8 9 10 4 4 5 7 7 6 4 3 3 3 3 1 1 2 2 2 2 2 4 5 5 4 2 2 3 3 4 4 4 4 4 5 5 4 4 4 4 3 4 4 5 5 4 5 4 4 3 3 4 5 5
2 2 3 3 9 7 8 5 13 6 9 5 4 1 5 11 7 8 6 5 12 18 10 9 13 14 14 10 10 10 9 5 7 8 7 2 1 4 6 6 2 1 0 0 1 2 1 1 1 3 4 4 4 6 6 5 2 1 3 4 3 4 4 4 4 5 5 3 3 2 2 2 2 3 3 4 4 3 3 3 3 3 4 4 4 5
5 3 7 16 11 6 8 10 8 11 6 4 4 5 7 10 10 9 11 11 8 11 10 10 13 14 11 8 11 9 13 14 11 4 5 4 3 1 1 1 1 3 4 3 2 2 2 2 2 4 4 3 4 6 6 4 1 3 4 4 4 5 4 5 5 5 4 3 3 3 3 3 2 2 2 2 3 3 3 2 3 3 3 3 3 3
2 1 2 6 5 10 9 9 15 14 5 14 3 14 13 10 5 12 12 1 10 11 7 10 12 12 9 13 11 10 11 14 13 3 4 4 2 1 1 1 1 3 4 4 5 3 2 2 3 4 5 5 5 5 5 3 2 3 3 4 5 5 5 5 5 4 4 4 4 4 4 5 4 3 2 2 2 2 2 1 1 2 2 2 2 3
14 10 11 11 4 4 1 9 7 16 6 23 14 6 5 6 13 9 2 4 5 6 8 8 10 9 8 10 12 13 11 9 9 10 9 6 7 9 3 4 4 3 2 3 3 2 2 4 3 5 5 5 5 5 5 4 3 4 4 6 5 5 5 5 4 4 3 4 4 4 5 4 5 4 3 3 2 2 2 2 1 1 1 2 2 2
14 6 3 3 8 8 10 13 12 3 11 15 19 15 15 14 2 5 7 6 6 6 7 7 8 10 9 12 11 11 11 9 7 8 6 6 7 9 5 2 2 2 3 3 3 1 3 4 4 6 6 6 6 6 7 6 4 5 5 6 6 6 5 5 4 4 4 4 5 5 5 5 5 5 4 4 3 3 2 3 2 1 1 1 1 1
16 11 11 11 12 11 10 10 7 3 6 10 13 7 15 20 15 7 8 7 7 8 8 7 9 7 5 5 6 3 4 8 7 4 5 6 6 6 4 3 2 3 3 2 2 2 1 4 6 6 7 7 8 7 7 7 5 5 6 6 6 7 6 6 5 4 4 5 5 5 4 4 5 5 6 6 5 4 4 3 2 1 2 1 1 1
7 20 7 6 11 12 16 9 5 3 7 13 14 11 7 13 15 6 3 4 5 1 1 2 4 3 1 3 3 4 5 3 2 4 5 4 5 3 2 3 4 4 4 4 4 5 4 5 6 7 7 7 8 7 7 7 7 7 6 6 6 7 6 5 4 4 5 4 4 5 5 4 5 6 6 6 5 5 5 5 4 4 4 3 3 3
7 8 9 11 9 9 16 17 10 7 6 12 13 8 4 2 3 5 8 7 3 2 3 2 3 3 3 3 5 5 5 3 6 6 2 2 3 3 3 4 4 4 3 4 3 1 3 4 5 6 6 7 7 7 7 8 7 7 6 7 7 7 5 4 4 4 4 4 4 4 5 6 5 4 5 6 5 5 5 5 4 4 5 4 4 4
5 11 10 17 19 16 17 10 8 13 8 5 8 8 10 11 8 5 4 3 2 2 2 3 2 4 0 4 4 4 7 2 3 6 3 1 1 3 3 4 4 5 5 4 4 4 4 5 6 6 6 6 6 6 7 7 7 8 8 7 7 6 4 4 4 4 4 4 4 4 4 4 5 5 4 4 4 4 5 5 5 5 6 5 5 4
5 13 10 10 10 10 14 15 2 6 12 10 6 8 5 2 4 6 2 1 3 3 4 4 3 3 3 3 5 4 6 2 2 3 2 2 3 3 4 4 5 5 5 5 6 7 6 6 7 7 7 7 6 6 6 6 6 7 8 7 6 6 3 2 3 3 4 4 4 4 4 4 4 4 4 4 5 6 6 5 5 5 5 6 5 4
7 15 4 6 6 9 12 12 6 10 13 12 11 1 3 5 3 4 3 3 6 5 5 4 3 5 6 6 5 4 3 3 4 3 3 4 5 5 5 5 5 6 6 6 6 7 8 8 8 7 7 6 6 6 6 6 7 7 7 7 7 6 4 2 3 4 5 5 4 4 4 4 4 4 4 4 3 4 6 10 10 7 5 4 9 12
11 16 10 8 9 10 6 11 12 13 12 3 4 3 3 6 4 5 6 4 5 5 5 4 4 3 6 6 6 6 5 4 4 3 5 5 5 5 5 5 5 5 5 5 6 7 8 7 7 8 8 6 6 6 6 6 7 7 8 8 8 7 5 4 3 4 4 5 5 5 4 4 4 4 4 4 4 3 2 2 5 10 11 11 11 12
Wind_Direction
356 193 195 210 217 203 202 223 265 64 50 92 134 247 266 271 275 265 273 47 190 270 255 263 270 277 279 280 278 260 262 263 272 277 274 276 279 267 263 263 268 268 268 279 281 279 270 267 265 256 248 234 220 213 207 204 202 197 192 182 191 186 180 179 178 181 180 179 180 186 190 191 179 181 176 181 192 191 193 177 185 182 193 184 183 185
223 225 230 209 55 117 217 184 147 142 32 259 270 266 272 214 271 310 285 75 239 281 278 170 288 280 278 283 283 278 256 262 262 269 276 283 293 286 272 270 270 275 285 278 276 259 249 252 236 245 229 212 211 206 204 204 200 195 192 192 190 180 182 187 185 179 184 188 185 178 184 181 170 172 180 188 190 190 177 176 187 189 189 184 187 186
204 224 212 49 59 103 77 128 200 216 222 192 249 274 278 263 269 261 39 173 155 202 280 46 303 287 286 284 285 284 264 259 258 258 275 292 287 282 272 269 278 284 283 286 273 249 262 277 272 245 236 217 224 210 200 204 199 195 194 197 191 185 181 186 184 181 188 188 184 178 167 175 159 173 181 186 178 173 181 185 190 191 188 185 191 189
230 235 57 109 152 135 84 120 148 122 239 229 213 230 251 61 329 285 124 51 199 253 300 323 301 282 279 278 275 254 235 247 248 255 261 257 263 257 275 303 297 294 290 294 309 319 315 293 278 253 221 222 207 213 202 200 200 195 199 196 194 185 181 183 187 187 185 180 165 147 139 161 152 174 158 135 137 173 180 188 188 196 190 189 193 189
230 48 88 161 157 224 137 138 165 192 231 209 231 247 261 237 222 239 343 301 260 253 257 274 255 262 260 308 307 283 153 232 254 257 251 242 236 255 287 286 254 261 279 293 304 307 310 312 296 280 282 252 220 210 208 197 196 194 198 193 192 186 185 185 182 181 171 145 138 117 107 113 100 95 153 175 193 191 191 192 190 196 188 190 194 188
252 109 274 160 141 125 148 180 205 210 256 238 209 221 243 91 271 265 303 304 252 214 154 338 326 255 324 309 287 300 314 306 242 275 278 270 253 212 257 262 257 239 249 268 282 298 307 301 305 275 237 224 223 220 212 202 200 194 193 192 187 187 184 185 181 180 175 171 169 161 162 171 181 184 179 195 196 182 188 197 180 179 190 191 194 191
358 112 232 184 164 147 208 241 172 194 251 285 320 346 200 180 290 287 270 254 277 293 107 277 296 295 318 298 290 329 336 313 320 271 281 281 261 228 227 224 221 271 280 250 255 259 288 303 303 290 260 244 233 230 202 196 200 199 194 188 186 186 183 182 177 177 176 177 183 181 181 180 184 190 198 196 186 180 183 180 178 186 185 193 194 193
138 135 147 130 157 183 207 240 189 191 182 254 54 107 115 154 199 222 251 234 292 290 175 100 245 278 318 285 30 76 323 313 324 15 30 58 126 205 241 248 263 286 290 290 294 296 285 277 283 300 307 274 267 234 200 199 197 195 194 185 186 188 184 175 174 179 186 186 186 187 188 186 188 193 193 182 178 172 170 178 181 183 186 189 197 195
209 144 191 153 182 180 226 267 49 212 218 38 161 253 136 153 201 206 234 282 344 341 286 119 227 252 223 267 160 4 306 280 41 45 67 60 62 74 254 268 270 272 280 287 289 294 301 302 297 292 284 297 292 243 211 202 191 190 191 188 187 191 186 181 181 183 191 195 191 190 189 193 200 195 181 154 161 171 171 183 182 188 187 189 196 200
274 249 215 179 169 212 106 42 355 206 216 116 134 122 105 110 83 222 269 267 234 284 276 138 287 257 274 262 285 75 251 236 134 52 337 306 285 284 291 290 295 295 281 270 273 280 287 292 290 282 281 273 258 230 216 196 183 184 183 189 190 193 190 182 183 187 192 197 192 195 196 194 192 189 165 161 171 179 174 191 189 189 191 191 193 199
37 291 304 235 230 54 122 62 54 23 39 114 160 180 166 160 166 151 33 249 210 231 236 103 69 282 299 269 249 187 216 169 252 202 237 308 312 275 222 293 321 323 316 307 302 291 286 288 284 282 269 268 246 205 206 194 193 187 188 191 195 196 190 183 184 188 194 197 198 201 197 194 190 182 172 176 177 180 178 195 195 193 197 193 195 192
161 105 207 203 62 112 121 105 72 113 89 204 178 235 242 200 177 185 133 213 240 253 103 56 46 255 234 273 206 253 310 221 241 294 304 303 316 308 317 334 335 324 316 309 306 305 308 309 274 265 266 238 193 168 187 191 191 191 193 192 195 196 193 186 188 191 196 196 201 206 203 201 198 180 181 190 185 185 187 193 192 191 191 195 193 193
218 192 91 101 264 195 170 134 122 149 178 211 203 234 264 283 311 227 155 218 193 256 89 27 170 239 232 243 294 285 253 236 208 246 280 302 312 315 317 331 324 313 309 305 305 303 309 307 311 303 294 243 208 199 190 188 185 193 199 199 200 201 194 193 191 194 196 198 202 203 205 206 202 195 193 195 195 187 190 190 191 184 193 189 193 199
171 76 167 126 165 218 233 203 159 200 175 186 196 193 214 252 204 268 257 353 299 94 38 110 114 261 281 285 246 251 269 285 279 245 261 284 296 305 306 323 317 308 304 302 299 295 288 292 297 298 293 289 256 209 198 195 191 190 195 197 207 207 195 196 198 199 200 204 205 204 206 206 202 202 198 202 201 194 194 191 193 189 191 191 198 193
275 212 171 176 180 86 234 328 6 6 158 190 34 259 277 266 236 271 234 264 324 357 128 190 283 243 295 162 21 270 297 307 273 268 289 288 285 286 296 288 285 287 297 301 298 295 297 304 308 312 318 312 295 261 220 208 207 200 205 201 205 207 197 198 201 201 206 207 207 207 208 208 207 205 203 207 208 199 194 196 194 195 195 197 198 197
235 286 53 13 33 317 199 84 296 105 117 119 181 34 232 230 19 264 23 321 345 326 269 173 234 271 241 353 303 269 268 260 259 272 309 286 275 299 303 290 291 293 303 313 305 304 299 293 312 306 298 281 271 258 238 220 206 204 210 211 213 215 206 201 203 207 210 213 212 211 210 211 210 209 209 213 211 212 198 197 196 200 200 205 199 195
62 229 54 106 256 127 28 258 161 293 234 145 174 204 123 17 111 102 152 99 240 214 246 99 278 262 271 262 260 317 295 42 72 181 201 269 285 300 273 271 275 293 306 311 312 311 318 321 253 249 271 271 251 241 234 238 226 222 216 211 216 217 218 210 210 212 212 216 216 217 216 215 213 212 211 212 212 208 203 203 205 208 208 204 202 194
273 63 80 206 159 78 346 305 311 337 308 133 208 110 99 316 353 240 266 117 281 263 278 118 257 289 41 306 22 299 17 31 55 86 295 283 287 287 262 245 236 248 267 285 291 302 301 290 288 285 246 258 264 253 242 231 220 221 224 217 219 216 215 213 209 213 214 213 218 218 218 219 220 218 219 220 220 209 207 204 208 210 209 208 206 192
113 253 125 10 11 71 166 226 185 119 351 330 11 352 247 177 193 124 321 247 215 244 282 259 283 259 200 257 294 266 229 224 217 266 307 296 256 258 266 281 280 263 247 238 269 284 284 282 286 283 289 284 269 258 249 244 220 217 218 220 222 224 218 213 210 212 214 213 213 215 215 215 217 219 221 223 224 217 210 209 210 210 214 209 197 198
269 268 133 61 60 24 273 199 221 162 157 141 258 193 42 294 316 170 210 357 359 292 355 277 51 275 165 209 220 271 253 189 246 217 237 239 241 239 266 291 316 323 318 307 300 281 269 263 250 241 258 275 268 256 243 236 227 227 223 217 221 225 221 215 216 211 215 212 212 212 213 216 216 217 219 219 219 222 219 216 216 216 213 214 202 200
180 115 275 98 310 260 206 193 223 162 171 178 210 188 143 244 334 333 231 234 266 264 251 311 303 264 213 197 225 254 259 252 246 251 243 249 259 241 241 306 315 306 303 302 299 304 300 292 281 246 224 240 249 248 253 241 233 234 221 221 216 214 214 217 219 214 216 210 212 209 211 211 210 216 217 220 220 222 220 216 218 220 220 213 212 191
184 183 240 123 182 225 233 36 352 335 286 188 178 196 188 153 173 192 227 78 287 229 239 180 263 285 277 115 221 242 255 257 233 246 256 248 240 269 339 316 293 293 285 286 289 290 293 294 293 277 228 222 236 245 241 232 238 237 230 227 222 218 218 217 215 211 210 208 208 207 209 209 207 207 210 214 217 219 218 216 217 218 214 216 215 197
264 99 182 202 216 206 22 25 14 7 360 2 289 234 181 200 212 207 253 179 81 230 30 353 353 271 171 200 177 241 257 229 239 221 244 247 252 256 266 277 278 255 262 269 277 285 281 278 278 287 285 271 261 264 265 253 231 239 239 235 231 226 232 225 227 215 212 211 209 210 208 209 208 203 203 207 213 215 214 215 217 212 212 215 213 202
128 219 216 263 126 82 169 128 100 355 358 258 236 235 188 203 206 237 275 145 187 122 194 141 235 268 258 159 204 4 347 316 274 237 258 282 266 233 242 242 250 263 263 266 270 270 266 271 282 288 289 283 259 246 249 247 251 243 239 240 240 241 247 248 244 237 226 222 221 214 211 210 210 208 206 208 210 212 210 210 211 206 210 211 206 205
183 198 222 268 276 201 169 151 156 79 258 235 225 180 214 57 71 75 92 358 269 203 175 142 249 259 29 233 61 234 178 237 246 233 195 262 276 252 220 235 233 249 263 267 265 264 271 276 278 282 286 290 296 294 287 279 266 261 254 235 236 246 247 248 246 238 236 230 228 219 215 215 212 213 212 214 212 214 210 209 207 204 205 202 205 204
247 160 166 204 218 241 216 206 212 194 206 190 225 180 197 189 155 143 214 182 235 180 166 198 242 258 270 258 280 261 258 278 267 258 208 212 255 279 268 249 251 243 251 259 265 269 268 269 275 278 278 282 285 285 291 289 281 272 262 255 249 254 251 243 239 239 238 234 232 230 224 222 218 219 218 219 222 222 219 218 218 218 212 206 207 202
195 32 223 220 224 239 243 86 6 83 99 192 195 187 188 202 189 195 89 173 220 169 194 211 226 267 288 281 260 267 273 274 283 286 272 217 214 240 247 245 243 251 256 259 262 271 283 281 274 271 272 270 274 276 277 280 283 279 272 265 245 231 237 242 233 225 227 232 233 238 234 228 230 228 227 226 227 227 226 225 228 232 233 229 230 226
78 221 226 237 250 254 280 22 175 195 182 182 143 195 187 185 191 192 187 217 125 105 243 229 239 243 258 273 279 280 275 267 265 273 289 299 275 224 251 275 277 264 256 243 246 254 262 271 278 278 275 274 268 268 269 264 263 269 271 271 263 230 224 225 220 217 217 218 223 226 228 226 224 225 225 224 221 221 220 219 217 219 223 220 223 230
209 233 252 182 243 253 267 213 142 205 261 192 197 161 182 194 184 202 217 193 151 204 241 236 214 229 250 253 261 268 268 269 278 290 292 290 292 295 306 294 287 283 280 277 271 262 262 266 271 276 279 275 275 275 273 272 271 265 267 268 277 272 254 242 226 225 222 222 226 225 225 226 222 220 217 217 220 221 220 216 216 212 209 209 212 210
134 249 140 214 268 273 259 212 178 229 229 211 225 209 190 186 202 206 218 212 205 228 241 266 266 252 248 254 254 257 262 273 286 299 298 283 277 289 303 290 286 285 283 283 280 273 264 264 266 268 271 276 274 272 268 259 257 259 268 279 272 260 257 225 237 239 235 238 241 245 242 238 240 238 239 234 229 228 225 221 218 215 214 214 210 207
198 253 107 154 248 261 264 134 201 218 224 233 223 222 219 208 201 209 222 228 230 256 264 257 263 272 266 255 259 264 269 293 299 282 276 279 286 296 282 273 275 277 281 282 280 273 269 268 266 267 266 265 261 261 265 269 276 268 259 253 257 257 234 211 226 224 231 236 233 233 233 235 241 233 235 237 236 232 224 225 219 220 222 222 218 217
204 248 78 100 260 270 313 175 124 29 219 254 258 238 229 206 211 213 218 217 204 222 234 265 281 260 261 262 247 254 272 273 268 269 272 276 286 278 266 268 267 270 273 277 279 282 280 275 268 261 260 263 266 263 249 248 246 246 259 246 246 247 222 218 223 228 229 228 229 230 231 228 224 222 228 224 229 230 228 228 225 224 221 217 216 215
192 175 185 149 236 248 275 121 126 135 357 258 225 229 219 210 214 216 228 222 214 219 223 229 236 238 246 258 275 276 252 250 249 255 271 280 267 246 256 260 265 266 269 272 276 278 276 272 264 259 257 253 252 250 259 268 276 270 278 289 305 313 233 234 235 243 243 234 236 239 233 234 232 231 227 222 219 217 214 219 223 224 218 217 215 205
156 205 193 154 236 256 326 41 126 293 255 235 175 201 179 206 207 217 221 214 224 197 216 218 237 260 270 265 264 264 262 252 265 277 235 267 292 287 267 256 256 265 271 271 264 264 269 264 254 245 239 255 266 270 288 293 279 289 312 308 309 288 274 267 264 260 270 267 258 253 247 244 241 243 239 230 224 223 224 225 226 225 221 219 213 216
177 185 200 161 221 247 62 260 304 261 252 50 19 224 202 210 206 205 220 212 225 220 232 258 264 260 255 256 258 261 271 6 251 287 282 237 229 257 268 274 266 260 258 260 260 251 243 251 265 272 276 259 253 271 282 275 266 278 281 279 283 267 267 253 266 265 264 265 258 251 246 240 237 240 237 230 223 221 226 226 228 220 218 214 216 215
170 174 136 204 185 46 62 140 248 255 110 285 265 105 50 65 56 24 279 247 243 235 225 232 240 246 252 258 264 261 11 334 318 265 249 264 204 235 251 256 258 244 241 238 237 252 239 249 255 279 303 9 318 290 283 288 311 293 277 293 280 291 281 289 286 286 281 273 261 253 245 241 243 240 236 231 225 226 228 223 222 220 213 213 223 225
166 113 177 213 165 231 187 206 236 329 315 246 240 184 188 172 174 180 239 216 211 229 218 227 235 242 250 253 255 285 50 341 306 289 269 233 244 218 228 244 239 238 237 254 248 270 342 305 314 351 358 328 320 318 317 317 306 285 292 331 13 11 21 4 334 327 315 297 292 277 261 251 250 250 245 239 237 239 236 231 227 224 212 217 225 225
246 196 179 208 229 192 211 276 280 279 255 227 190 213 192 210 181 191 209 278 167 222 212 214 223 232 244 250 255 82 90 330 279 276 276 268 204 213 225 241 258 261 258 246 180 218 226 252 23 48 31 357 338 355 325 312 295 276 358 56 48 49 47 33 11 349 327 311 306 297 283 268 261 263 260 251 251 253 250 239 241 234 215 224 232 234
30 43 153 197 246 122 201 224 240 243 255 104 192 203 193 192 119 114 161 257 166 217 228 192 214 228 233 240 216 123 155 219 247 254 274 251 208 201 225 236 233 242 296 304 284 269 208 100 79 72 54 47 7 355 332 316 292 265 78 66 69 65 56 36 10 350 331 319 316 312 301 290 275 269 267 264 259 258 259 249 240 228 208 221 228 243
126 164 145 234 225 206 210 220 250 218 254 196 177 33 137 130 132 80 235 230 171 229 220 178 207 219 227 218 145 170 170 223 243 254 255 243 139 188 207 242 180 129 172 161 66 31 37 13 117 86 59 34 1 338 324 315 289 81 84 79 68 61 44 16 349 324 315 315 326 336 340 329 299 283 279 278 278 275 263 265 250 236 229 227 225 221
184 191 203 218 210 202 194 257 295 268 167 184 179 171 152 144 140 178 214 234 195 221 222 191 217 225 222 169 159 182 212 215 230 254 335 344 343 102 134 353 44 73 81 74 59 36 60 46 56 83 73 37 353 339 328 312 286 83 73 66 62 45 18 345 329 323 329 355 20 28 26 19 9 334 323 311 304 298 283 269 261 252 234 240 241 242
313 81 319 28 231 204 209 223 246 273 232 135 219 150 168 123 189 210 220 122 139 208 206 193 211 227 212 186 185 208 220 222 248 293 295 299 335 96 79 44 88 99 94 82 73 60 91 99 100 96 72 42 12 349 332 322 85 79 70 63 47 17 340 333 332 337 356 21 30 27 26 25 18 14 360 351 325 292 281 299 289 272 257 253 245 240
176 158 203 183 165 40 192 239 272 258 126 162 150 98 269 205 228 207 133 193 205 207 190 202 216 239 195 221 203 218 236 232 229 249 258 285 302 295 254 198 237 259 141 139 128 81 182 162 138 90 72 42 26 11 353 1 67 64 62 54 22 347 338 335 339 350 14 25 30 28 24 24 20 16 11 5 5 344 344 353 360 321 306 271 261 248
155 181 165 184 177 171 187 207 219 197 132 175 145 182 196 219 218 149 180 214 212 228 241 239 220 222 212 217 205 211 234 260 280 252 267 271 264 265 272 216 186 137 105 89 95 97 184 162 115 88 63 46 32 25 15 19 43 48 53 40 357 343 345 349 354 360 26 31 26 21 21 16 17 18 16 11 5 21 23 22 9 13 11 336 272 260
182 206 171 193 191 191 210 226 221 159 176 168 203 202 193 206 215 204 196 212 192 221 221 233 239 221 216 270 313 313 242 209 216 160 193 220 209 225 224 153 124 115 88 88 66 49 77 84 89 84 64 45 33 31 26 20 35 39 43 8 355 350 353 354 360 23 31 28 23 19 10 21 28 22 18 12 15 16 16 18 8 26 22 23 360 354
158 204 191 255 223 230 266 266 62 141 178 200 215 217 192 215 225 239 226 260 242 322 52 250 18 347 352 187 228 225 216 280 210 200 202 205 203 187 120 109 85 74 73 66 56 42 65 82 82 81 75 55 39 31 31 26 29 34 14 355 355 351 352 355 10 32 31 24 28 17 5 22 36 37 27 22 26 25 21 15 16 27 21 27 23 21
230 201 203 221 235 209 247 228 186 233 244 224 225 240 256 160 217 239 239 240 286 321 264 161 214 265 260 232 235 268 273 204 265 266 148 174 204 168 143 115 89 69 63 68 46 96 117 102 88 77 69 59 35 29 25 27 27 20 1 356 354 348 350 7 28 40 30 26 22 22 25 38 28 26 33 28 31 36 32 27 29 40 35 31 24 22
254 173 211 226 224 218 248 249 168 220 246 216 208 219 250 254 242 209 215 284 301 251 264 333 3 270 182 264 266 267 273 260 259 279 300 340 32 83 97 98 104 97 73 61 50 55 79 74 83 79 72 60 37 29 27 25 21 10 3 354 358 344 353 32 28 47 40 34 32 33 31 38 32 34 42 32 36 36 35 36 42 47 46 36 23 19
197 126 227 192 223 247 280 270 184 333 285 248 133 227 240 360 335 301 335 49 24 25 4 2 35 330 354 340 3 325 294 310 53 325 337 73 74 69 76 85 78 77 73 58 46 41 56 70 73 72 69 60 43 33 33 30 17 10 359 357 354 347 15 45 46 49 48 37 40 36 29 38 31 33 35 42 51 55 47 38 38 58 57 46 39 18
120 218 188 84 208 226 223 245 225 253 252 257 239 175 16 348 325 298 356 45 23 20 5 353 10 71 72 42 18 359 339 356 24 3 65 67 67 75 84 84 81 75 70 67 64 69 71 72 76 75 70 58 47 42 39 30 20 8 0 355 349 352 4 7 48 50 43 40 38 31 25 31 34 27 33 33 42 69 73 66 62 50 58 39 41 46
203 224 224 219 220 237 218 235 212 234 256 28 90 48 35 7 26 51 49 34 23 25 7 10 4 32 53 44 35 34 26 24 13 40 78 76 72 68 66 78 84 82 80 78 83 75 76 78 75 78 73 63 53 41 33 29 17 8 360 4 354 358 1 7 36 55 51 48 45 33 40 35 33 29 33 33 28 30 60 80 60 61 52 44 46 44